Location: Howard City Library
(37.4684°N, 96.2639°W)
Time: 21:59:55
(UTC+00:00)

Cosmos 2297 - Pass Details

Date: 18 February 2020
Orbit: 837 x 857 km, 71.0° (Epoch: 29 March)

Event Time Altitude Azimuth Distance (km) Brightness Sun altitude
Rises 00:25:03 0° 188° (S) 3,392 7.1 -4.5°
Reaches altitude 10° 00:27:31 10° 184° (S) 2,458 6.3 -4.9°
Maximum altitude 00:33:02 56° 107° (ESE) 992 3.8 -6.0°
Drops below altitude 10° 00:38:32 10° 31° (NNE) 2,461 5.7 -7.1°
Sets 00:41:01 0° 27° (NNE) 3,397 6.5 -7.6°
